STARLINK-32141, 60290

Orbit data source: Space-Track

STARLINK-32141, 60290 is a payload satellite owned by SpaceX/Seattle (US) in LEO that was launched on Sun, 28 Jul 2024 UTC via an FALCON 9 launch vehicle from the Air Force Eastern Test Range (AFETR). Payload-class satellites include a variety of spacecraft equipped with specific instruments for various scientific and technological missions. These include communications satellites like Starlink; space stations such as the ISS; scientific satellites like the Hubble; Earth observation satellites from companies like Planet Labs, Umbra, and HawkEye 360; GPS; miniature CubeSats for education and research; and military/defense satellites.

Loading next visibility...
Identifier
60290, 2024-132N
Orbit
LEO
Last TLE update
20 hours ago
Origin
Manufacturer
SpaceX/Seattle
Mission
Operational spacecraft
Bus & Motor
STARLINK V2M, Unknown motor
Mass
730 kg wet, ~700 kg dry
Launch date (UTC)
2024-07-28 (9 months ago)
Launch vehicle
FALCON 9
Launch site
Air Force Eastern Test Range (AFETR)
Object type
Payload
Rocket body
Debris
Shape & HBR
Unknown
Radar Cross Section
Large (>1 m²)

Expand to show TLE details & history

TLE from 20 hours ago
0 STARLINK-32141
1 60290U 24132N   25128.94827715  .00000354  00000-0  24060-4 0  9998
2 60290  53.1622  27.8861 0001029  98.8787 261.2330 15.30198123 44906
Epoch: 2025-05-08T22:45Z
Definitive object data (Epoch: 2025-05-08T22:45:31.145Z)
Latitude
-0.00006°
Longitude
179.49483°
Altitude
476.228 km
Speed
7.629 km/s
True Right ascension
01h 51m 32s
True Declination
0° 00' 00"
Sunlit
Object was in daylight at TLE epoch
Visualization TLE readout
Latitude
-33.41686°
Longitude
146.14436°
Altitude
486.28 km
Speed
7.622 km/s
Apparent Right ascension
19h 59m 16s
Apparent Declination
-58° 43' 58"
Sunlit
Object is in daylight
Visualization observer readout
Local Sidereal Time
03:07:47
Azimuth
221.659° SW
Elevation
-41.736°
Doppler factor
1
Orbital elements
Apogee altitude
476.182 km
Perigee altitude
474.772 km
Semi-major axis
6,853.614 km
Eccentricity
0.0001029
Inclination
53.1622°
RAAN
27.8861°
Arg. of periapsis
98.8787°
True anomaly
261.22135°
Mean anomaly
261.233°
Eccentric anomaly
261.22717°
Mean motion
3.82528 °/min
BSTAR
0.00002406
Orbital period
94.11 mins
Loading maneuver chart data...
Loading SW <> Apogee altitude chart data...
Loading historical data...
Loading historical data...
Loading historical data...
Loading historical data...
Loading historical data...
Loading historical data...
Loading historical data...

STARLINK-32141 Visibility forecast

Observer location: undefined°, undefined°

Span
Click to sort rows by Start time (UTC) header in descending order
Start Az.
Max El. time (UTC)
Max El. Az.
Max El.
End time (UTC)
End Az.
6 mins2025-05-09 19:17:53.798Z197.453° SSW2025-05-09 19:20:53.798Z124.188° SE30.934°2025-05-09 19:23:53.798Z66.058° ENE
4 mins2025-05-09 20:56:53.798Z285.111° WNW2025-05-09 20:58:53.798Z338.831° N25.831°2025-05-09 21:00:53.798Z23.037° NE
5 mins2025-05-10 01:53:53.798Z342.43° N2025-05-10 01:55:53.798Z45.452° ENE29.563°2025-05-10 01:58:53.798Z99.815° ESE
4 mins2025-05-10 03:31:53.798Z268.134° W2025-05-10 03:32:53.798Z243.736° WSW24.631°2025-05-10 03:35:53.798Z174.302° S
4 mins2025-05-10 18:49:53.798Z171.508° S2025-05-10 18:50:53.798Z143.526° SSE27.248°2025-05-10 18:53:53.798Z73.287° E
|